User: anonymous   Login
Location: Slanting_Bridge
(35.6330°N, 80.9830°W)
Time: 23:25:44
(UTC-04:00)
Language:

Hamsat - Orbit

View from above orbital plane
View from above orbital plane
View from above satellite
View from above satellite

Ground track
Ground track

The orbit data is extracted from the following two-line orbital elements,

1 28650U 05017B   17086.88974412 +.00000604 +00000-0 +70271-4 0  9990
2 28650 097.6432 064.0250 0024636 042.6030 317.7092 14.88598836644000
Epoch (UTC): 27 March 2017 21:21:13
Eccentricity: 0.0024636
inclination: 97.6432°
perigee height: 585 km
apogee height: 619 km
right ascension of ascending node: 64.0250°
argument of perigee: 42.6030°
revolutions per day: 14.88598836
mean anomaly at epoch: 317.7092°
orbit number at epoch: 64400

The dashed part of the orbit path shows where the satellite is in the earth's shadow,  

DLR